This is the latest recevied weather packets stored in our database for station/object K4PAD. If no packets are shown the sender has not sent any weather packets the latest 10 day(s).
| Time | Temp. | Humidity | Pressure | Rain* | Wind** | Luminosity | Snow |
|---|---|---|---|---|---|---|---|
| 1778100569 | 33.89° C | 36% | 1015.5 hPa | 0 mm | - | 648 W/m² | - |
| 1778100267 | 33.89° C | 36% | 1015.7 hPa | 0 mm | - | 576 W/m² | - |
| 1778099964 | 33.89° C | 36% | 1015.4 hPa | 0 mm | - | 514 W/m² | - |
| 1778099661 | 34.44° C | 37% | 1015.6 hPa | 0 mm | - | 565 W/m² | - |
| 1778099357 | 33.89° C | 37% | 1015.7 hPa | 0 mm | - | 627 W/m² | - |
| 1778099054 | 34.44° C | 38% | 1015.6 hPa | 0 mm | - | 683 W/m² | - |
| 1778098751 | 33.89° C | 38% | 1015.5 hPa | 0 mm | - | 695 W/m² | - |
| 1778098449 | 33.89° C | 40% | 1015.7 hPa | 0 mm | - | 754 W/m² | - |
| 1778098145 | 33.89° C | 39% | 1015.9 hPa | 0 mm | - | 703 W/m² | - |
| 1778097841 | 33.89° C | 38% | 1015.7 hPa | 0 mm | - | 679 W/m² | - |
| 1778097537 | 33.89° C | 40% | 1015.9 hPa | 0 mm | - | 720 W/m² | - |
| 1778097235 | 33.33° C | 40% | 1016 hPa | 0 mm | - | 775 W/m² | - |
| 1778096931 | 33.89° C | 39% | 1016.3 hPa | 0 mm | - | 874 W/m² | - |
| 1778096628 | 33.89° C | 40% | 1016.3 hPa | 0 mm | - | 348 W/m² | - |
| 1778096326 | 33.89° C | 38% | 1016.2 hPa | 0 mm | - | 887 W/m² | - |
| 1778096022 | 33.89° C | 39% | 1016.2 hPa | 0 mm | - | 783 W/m² | - |
| 1778095719 | 33.89° C | 40% | 1016.4 hPa | 0 mm | - | 895 W/m² | - |
| 1778095416 | 33.33° C | 40% | 1016.5 hPa | 0 mm | - | 887 W/m² | - |
| 1778095113 | 33.33° C | 41% | 1016.7 hPa | 0 mm | - | 561 W/m² | - |
| 1778094809 | 32.78° C | 40% | 1016.7 hPa | 0 mm | - | 897 W/m² | - |
| 1778094506 | 33.33° C | 40% | 1016.7 hPa | 0 mm | - | 781 W/m² | - |
| 1778094202 | 32.78° C | 42% | 1016.8 hPa | 0 mm | - | 910 W/m² | - |
| 1778093899 | 33.33° C | 40% | 1016.8 hPa | 0 mm | - | 972 W/m² | - |
| 1778093596 | 33.33° C | 40% | 1016.8 hPa | 0 mm | - | 1002 W/m² | - |
| 1778093293 | 33.33° C | 40% | 1016.8 hPa | 0 mm | - | 823 W/m² | - |
* Rain latest hour (hover to see other rain measurements)
** Current wind speed in m/s (hover to see current wind gust speed)